Погода в Острове Гукера

Россия     80°16′13″N   53°02′52″E
темп.,
°C
ветер,
м/с
пор.,
м/с
влажн.,
%
обл.,
%
осадки,
мм/ч
давл.,
гПа
погр.,
м
9 мая, вс
вс900:00−13в3396100 0.0 102729
03:00−11в4594100 0.0 102677
06:00−8в4794100 0.1 1025211
09:00−5вюв4992100 0.3 1024472
12:00−3юв4689100 0.2 1022640
15:00−2юв348791 0.3 1022437
18:00−3ююв229253 0.1 102261
21:00−7ююв229660 0.1 102210
10 мая, пн
пн1000:00−8юв2297100 0.0 102211
03:00−8вюв3396100 0.0 102119
06:00−6в4592100 0.0 101970
09:00−4в51191100 0.0 1016299
12:00−3в81493100 0.0 1011531
15:00−2вюв121694100 0.1 1007699
18:00−3в121795100 0.6 1000851
21:00−3в131996100 5.1 994735
11 мая, вт
вт1100:00−3в91396100 2.4 988465
03:00−2юв489796 3.1 985416
06:00−1ююв349495 0.7 983348
09:00−1ююз579598 1.3 982491
12:00−2юз7994100 0.7 983615
15:00−3зюз81095100 1.4 985704
18:00−4зюз9119494 0.6 986709
21:00−5зюз111696100 1.4 987539
12 мая, ср
ср1200:00−6з10159394 1.1 989430
03:00−6з9149399 1.3 991452
06:00−6з9139295 0.3 993565
09:00−6зсз10139397 0.9 994641
12:00−7зсз11149295 0.9 997644
15:00−8зсз10159093 1.4 1000616
18:00−9сз10169096 0.3 1002587
21:00−11сз9169194 0.8 1005520
13 мая, чт
чт1300:00−12зсз8159191 0.3 1007454
03:00−13зсз8159095 0.4 1009493
06:00−13зсз9169097 0.1 1010524
09:00−12зсз11179298 0.3 1010611
12:00−10зсз11179298 0.6 1011653
15:00−10зсз11179296 1.1 1011673
18:00−10зсз10169195 0.4 1011633
21:00−10зсз8149094 0.7 1012537